Retour au catalogue

FENGYUN 1C DEB

ActifPO
NORAD 31817·DEBRIS·🇨🇳 China

Lancé May 10, 1999 depuis Taiyuan Satellite Launch Center

Loading…

Prochains Passages (prochaines 24 heures)

TLE

VieillissantSource: Space-Track

Époque: Sep 10, 2026, 07:41 UTC

1 31817U 99025CHF 26253.32039565  .00003469  00000-0  58688-3 0  9996
2 31817  98.9158 278.7102 0056825 316.6202  43.0535 14.69050009753891

Suivez FENGYUN 1C DEB en temps réel avec AllMySat

Download on the App Store